Monument Pass, CO

4:13 AM MST on November 21, 2017 (GMT -0700)
Monument Pass

Weather History for KMNH - January, 2013

Change the Weather History Date:

Tuesday, January 8, 2013

  Actual Average Record
Temperature  
Mean Temperature 36 °F -  
Max Temperature 46 °F - 60 °F (2003)
Min Temperature 26 °F - 6 °F (2008)
Degree Days  
Heating Degree Days 29    
Month to date heating degree days  
Cooling Degree Days 0    
Month to date cooling degree days  
Moisture  
Dew Point 12 °F    
Average Humidity 41    
Maximum Humidity 69    
Minimum Humidity 18    
Precipitation  
Precipitation 0.00 in - 0.05 in (2016)
Sea Level Pressure  
Sea Level Pressure 29.98 in    
Wind  
Wind Speed 9 mph (WSW)    
Max Wind Speed 16 mph    
Max Gust Speed -    
Visibility 10 miles    
Events      
T = Trace of Precipitation, MM = Missing Value Source: NWS Daily Summary

Daily Weather History Graph

Daily Weather History Graph

Search for Another Location

Airport or City:

Trip Planner

Search our weather history database for the weather conditions in past years. The results will help you decide how hot, cold, wet, or windy it might be!

Date:

Astronomy

Jan. 08, 2013 Rise Set
Actual Time 7:18 AM MST 4:52 PM MST
Civil Twilight 6:48 AM MST 5:22 PM MST
Nautical Twilight 6:15 AM MST 5:55 PM MST
Astronomical Twilight 5:42 AM MST 6:28 PM MST
Moon 3:54 AM MST (1/8) 1:57 PM MST (1/8)
Length of Visible Light 10h 34m
Length of Day
9h 34m
Waning Crescent, 13% of the Moon is Illuminated
Jan 8
Waning Crescent
Jan 11
New
Jan 18
First Quarter
Jan 26
Full
Feb 3
Last Quarter

Hourly Weather History & Observations

Time (MST) Temp. Windchill Dew Point Humidity Pressure Visibility Wind Dir Wind Speed Gust Speed Precip Events Conditions
12:15 AM 32.0 °F 23.0 °F 1.4 °F 27% 29.82 in 10.0 mi SW 11.5 mph - N/A   Clear
12:35 AM 28.4 °F 18.0 °F 3.2 °F 34% 29.82 in 10.0 mi SW 12.7 mph - N/A   Clear
12:55 AM 35.6 °F 27.5 °F -4.0 °F 18% 29.81 in 10.0 mi SW 11.5 mph - N/A   Clear
1:15 AM 32.0 °F 23.0 °F -0.4 °F 25% 29.82 in 10.0 mi SW 11.5 mph - N/A   Clear
1:35 AM 28.4 °F 20.4 °F 1.4 °F 31% 29.81 in 10.0 mi SSW 8.1 mph - N/A   Clear
1:55 AM 30.2 °F 23.4 °F -0.4 °F 27% 29.82 in 10.0 mi SSW 6.9 mph - N/A   Clear
2:15 AM 30.2 °F 24.3 °F -0.4 °F 27% 29.82 in 10.0 mi SSW 5.8 mph - N/A   Clear
2:35 AM 26.6 °F 15.7 °F 1.4 °F 34% 29.82 in 10.0 mi WSW 12.7 mph - N/A   Clear
2:55 AM 26.6 °F 16.2 °F 3.2 °F 37% 29.82 in 10.0 mi WSW 11.5 mph - N/A   Clear
3:15 AM 28.4 °F 19.7 °F 5.0 °F 37% 29.82 in 10.0 mi WSW 9.2 mph - N/A   Clear
3:35 AM 32.0 °F 23.6 °F 3.2 °F 30% 29.81 in 10.0 mi West 10.4 mph - N/A   Scattered Clouds
3:55 AM 32.0 °F 24.2 °F 5.0 °F 32% 29.80 in 10.0 mi West 9.2 mph - N/A   Overcast
4:15 AM 32.0 °F 23.0 °F 8.6 °F 38% 29.80 in 10.0 mi WNW 11.5 mph - N/A   Overcast
4:35 AM 30.2 °F 20.2 °F 8.6 °F 40% 29.81 in 10.0 mi WNW 12.7 mph - N/A   Scattered Clouds
4:55 AM 30.2 °F 21.3 °F 8.6 °F 40% 29.81 in 10.0 mi West 10.4 mph - N/A   Clear
5:15 AM 30.2 °F 21.9 °F 8.6 °F 40% 29.82 in 10.0 mi West 9.2 mph - N/A   Clear
5:35 AM 30.2 °F 22.6 °F 8.6 °F 40% 29.82 in 10.0 mi West 8.1 mph - N/A   Clear
5:55 AM 28.4 °F 19.7 °F 12.2 °F 51% 29.83 in 10.0 mi West 9.2 mph - N/A   Scattered Clouds
6:15 AM 30.2 °F 21.9 °F 10.4 °F 44% 29.85 in 10.0 mi West 9.2 mph - N/A   Clear
6:35 AM 28.4 °F 19.7 °F 12.2 °F 51% 29.85 in 10.0 mi West 9.2 mph - N/A   Clear
7:14 AM 30.2 °F 20.8 °F 12.2 °F 47% 29.85 in 10.0 mi West 11.5 mph - N/A   Clear
7:34 AM 28.4 °F 18.5 °F 14.0 °F 55% 29.87 in 10.0 mi West 11.5 mph - N/A   Clear
7:55 AM 32.0 °F 23.6 °F 12.2 °F 44% 29.87 in 10.0 mi West 10.4 mph - N/A   Clear
8:15 AM 32.0 °F 23.0 °F 14.0 °F 48% 29.88 in 10.0 mi West 11.5 mph - N/A   Clear
8:35 AM 32.0 °F 23.6 °F 12.2 °F 44% 29.89 in 10.0 mi West 10.4 mph - N/A   Clear
8:55 AM 33.8 °F 25.8 °F 12.2 °F 41% 29.91 in 10.0 mi West 10.4 mph - N/A   Clear
9:15 AM 33.8 °F 26.4 °F 14.0 °F 44% 29.92 in 10.0 mi West 9.2 mph - N/A   Clear
9:35 AM 35.6 °F 28.6 °F 14.0 °F 41% 29.93 in 10.0 mi WNW 9.2 mph - N/A   Clear
9:54 AM 41.0 °F 35.8 °F 14.0 °F 33% 29.93 in 10.0 mi NW 8.1 mph - N/A   Clear
10:15 AM 41.0 °F 38.0 °F 14.0 °F 33% 29.94 in 10.0 mi North 4.6 mph - N/A   Clear
10:35 AM 42.8 °F 41.1 °F 14.0 °F 31% 29.94 in 10.0 mi North 3.5 mph - N/A   Clear
10:55 AM 42.8 °F 41.1 °F 12.2 °F 29% 29.94 in 10.0 mi NNW 3.5 mph - N/A   Clear
11:15 AM 44.6 °F 41.4 °F 14.0 °F 29% 29.93 in 10.0 mi NW 5.8 mph - N/A   Clear
11:35 AM 44.6 °F 38.8 °F 14.0 °F 29% 29.93 in 10.0 mi NW 11.5 mph - N/A   Clear
11:55 AM 44.6 °F 40.2 °F 14.0 °F 29% 29.93 in 10.0 mi NW 8.1 mph - N/A   Clear
12:15 PM 46.4 °F 42.4 °F 14.0 °F 27% 29.93 in 10.0 mi NNW 8.1 mph - N/A   Clear
12:55 PM 44.6 °F 40.2 °F 14.0 °F 29% 29.95 in 10.0 mi NNW 8.1 mph - N/A   Clear
1:15 PM 44.6 °F 39.2 °F 15.8 °F 31% 29.95 in 10.0 mi NW 10.4 mph - N/A   Clear
1:35 PM 46.4 °F 41.9 °F 17.6 °F 32% 29.96 in 10.0 mi NW 9.2 mph - N/A   Clear
1:55 PM 46.4 °F 42.4 °F 17.6 °F 32% 29.97 in 10.0 mi NW 8.1 mph - N/A   Clear
2:15 PM 46.4 °F 44.3 °F 19.4 °F 34% 29.98 in 10.0 mi North 4.6 mph - N/A   Clear
2:35 PM 46.4 °F - 17.6 °F 32% 29.99 in 10.0 mi Calm Calm - N/A   Clear
2:55 PM 46.4 °F - 14.0 °F 27% 30.01 in 10.0 mi Calm Calm - N/A   Clear
3:15 PM 44.6 °F - 14.0 °F 29% 30.02 in 10.0 mi Calm Calm - N/A   Clear
3:35 PM 44.6 °F - 17.6 °F 34% 30.03 in 10.0 mi Calm Calm - N/A   Clear
3:55 PM 42.8 °F 40.1 °F 17.6 °F 36% 30.05 in 10.0 mi SSW 4.6 mph - N/A   Clear
4:15 PM 37.4 °F 32.1 °F 14.0 °F 38% 30.07 in 10.0 mi South 6.9 mph - N/A   Clear
4:35 PM 35.6 °F 30.7 °F 14.0 °F 41% 30.08 in 10.0 mi SSW 5.8 mph - N/A   Clear
4:55 PM 33.8 °F 29.6 °F 14.0 °F 44% 30.08 in 10.0 mi SW 4.6 mph - N/A   Clear
5:15 PM 33.8 °F 27.7 °F 14.0 °F 44% 30.09 in 10.0 mi SSW 6.9 mph - N/A   Clear
5:35 PM 30.2 °F 23.4 °F 17.6 °F 60% 30.11 in 10.0 mi East 6.9 mph - N/A   Clear
5:55 PM 32.0 °F - 14.0 °F 48% 30.12 in 10.0 mi Calm Calm - N/A   Clear
6:15 PM 33.8 °F 29.6 °F 10.4 °F 38% 30.13 in 10.0 mi SW 4.6 mph - N/A   Clear
6:34 PM 33.8 °F 29.6 °F 12.2 °F 41% 30.13 in 10.0 mi SSW 4.6 mph - N/A   Clear
6:55 PM 32.0 °F 27.5 °F 12.2 °F 44% 30.13 in 10.0 mi South 4.6 mph - N/A   Clear
7:15 PM 32.0 °F 25.6 °F 12.2 °F 44% 30.14 in 10.0 mi South 6.9 mph - N/A   Clear
7:35 PM 28.4 °F 19.1 °F 14.0 °F 55% 30.14 in 10.0 mi South 10.4 mph - N/A   Clear
7:54 PM 28.4 °F 19.1 °F 15.8 °F 59% 30.14 in 10.0 mi South 10.4 mph - N/A   Clear
8:15 PM 30.2 °F 20.2 °F 14.0 °F 51% 30.15 in 10.0 mi South 12.7 mph - N/A   Clear
8:35 PM 26.6 °F 16.8 °F 14.0 °F 59% 30.16 in 10.0 mi South 10.4 mph - N/A   Clear
8:55 PM 30.2 °F 19.8 °F 14.0 °F 51% 30.16 in 10.0 mi South 13.8 mph - N/A   Clear
9:15 PM 30.2 °F 19.8 °F 15.8 °F 55% 30.18 in 10.0 mi South 13.8 mph - N/A   Clear
9:35 PM 28.4 °F 17.5 °F 15.8 °F 59% 30.19 in 10.0 mi South 13.8 mph - N/A   Clear
9:55 PM 30.2 °F 18.9 °F 15.8 °F 55% 30.20 in 10.0 mi SSW 16.1 mph - N/A   Clear
10:15 PM 30.2 °F 19.3 °F 15.8 °F 55% 30.21 in 10.0 mi SSW 15.0 mph - N/A   Clear
10:55 PM 28.4 °F 17.5 °F 17.6 °F 64% 30.22 in 10.0 mi South 13.8 mph - N/A   Clear
11:15 PM 28.4 °F 19.1 °F 17.6 °F 64% 30.23 in 10.0 mi SSW 10.4 mph - N/A   Clear
11:35 PM 28.4 °F 19.1 °F 17.6 °F 64% 30.23 in 10.0 mi SSW 10.4 mph - N/A   Clear
11:55 PM 26.6 °F 16.8 °F 17.6 °F 69% 30.23 in 10.0 mi SSW 10.4 mph - N/A   Clear